Flag for Germany Weather past 2 weeks in Troisdorf, North Rhine-Westphalia, Germany

Now
73 °F

Passing clouds.


Feels Like: 76 °F
Forecast: 58 / 74 °F
Wind: 6 mph from Southeast

Location: Koeln / Bonn

Current Time: Sep 17, 2014 at 1:49:05 PM

Latest Report: Sep 17, 2014 at 1:20 PM


Visibility: N/A

Pressure: 29.89 "Hg

Humidity: 65%

Dew point: 61 °F

Location of TroisdorfLocation

Historic Weather in Troisdorf — Graph

°F

Troisdorf temperature yesterday

Maximum temperature yesterday: 75 °F (at 3:50 PM)
Minimum temperature yesterday: 55 °F (at 4:50 AM)
Average temperature yesterday: 65 °F

Past Weeks' High & Low Weather Summary

 TemperatureHumidityPressure
High77 °F (Sep 5, 3:50 PM)100% (Sep 3, 4:20 AM)30.24 "Hg (Sep 3, 4:20 AM)
Low45 °F (Sep 12, 3:20 AM)47% (Sep 5, 3:50 PM)29.89 "Hg (Sep 6, 3:50 PM)
Average61 °F80%30.06 "Hg
* Reported Sep 2 12:20 PM — Sep 17 12:20 PM, Troisdorf, Weather by CustomWeather, © 2014

Note: Actual official high and low records may vary slightly from our data, if they occured in-between our weather recording intervals... More about our weather records

Advertising

Troisdorf weather history for previous 24 hours

 ConditionsComfort  
Time TempWeatherWind HumidityBarometerVisibility
12:20 PM
Sep 17
72 °FPassing clouds.8 mph65%29.92 "HgN/A
11:50 AM72 °FSunny.8 mph65%29.92 "Hg10 mi
11:20 AM70 °FSunny.8 mph64%29.92 "Hg10 mi
10:50 AM68 °FSunny.8 mph69%29.92 "Hg10 mi
10:20 AM66 °FSunny.8 mph73%29.92 "Hg10 mi
9:50 AM64 °FSunny.6 mph78%29.92 "Hg10 mi
9:20 AM63 °FSunny.3 mph83%29.92 "Hg10 mi
8:50 AM59 °FSunny.2 mph88%29.92 "Hg10 mi
8:20 AM57 °FSunny.2 mph94%29.92 "Hg10 mi
7:50 AM54 °FClear.3 mph94%29.92 "Hg10 mi
7:20 AM54 °FFog.1 mph94%29.92 "HgN/A
6:50 AM54 °FFog.3 mph94%29.95 "HgN/A
6:20 AM54 °FFog.2 mph94%29.95 "HgN/A
5:50 AM54 °FFog.5 mph94%29.95 "HgN/A
5:20 AM52 °FFog.3 mph94%29.95 "HgN/A
4:50 AM55 °FClear.3 mph94%29.95 "Hg10 mi
4:20 AM54 °FFog.3 mph94%29.95 "HgN/A
3:50 AM55 °FFog.2 mph94%29.95 "HgN/A
3:20 AM57 °FClear.2 mph88%29.95 "Hg10 mi
2:50 AM55 °FClear.3 mph88%29.95 "Hg10 mi
2:20 AM59 °FClear.3 mph88%29.95 "Hg10 mi
1:50 AM61 °FClear.6 mph83%29.95 "Hg10 mi
1:20 AM61 °FClear.6 mph83%29.95 "Hg10 mi
12:20 AM61 °FClear.6 mph83%29.95 "Hg10 mi
11:50 PM
Sep 16
63 °FClear.5 mph77%29.95 "Hg10 mi
11:20 PM63 °FClear.6 mph83%29.95 "Hg10 mi
10:50 PM63 °FClear.5 mph77%29.95 "Hg10 mi
10:20 PM64 °FClear.7 mph78%29.95 "Hg10 mi
9:50 PM64 °FClear.7 mph78%29.95 "Hg10 mi
9:20 PM66 °FClear.6 mph73%29.95 "Hg10 mi
8:50 PM66 °FClear.7 mph73%29.95 "Hg10 mi
8:20 PM66 °FSunny.6 mph73%29.95 "Hg10 mi
7:50 PM68 °FSunny.6 mph73%29.95 "Hg10 mi
7:20 PM70 °FPassing clouds.5 mph69%29.95 "HgN/A
6:50 PM72 °FPassing clouds.3 mph61%29.95 "HgN/A
6:20 PM73 °FScattered clouds.6 mph57%29.95 "HgN/A
5:50 PM75 °FScattered clouds.6 mph50%29.95 "HgN/A
5:20 PM73 °FScattered clouds.7 mph57%29.95 "HgN/A
4:50 PM73 °FScattered clouds.8 mph57%29.95 "HgN/A
4:20 PM73 °FScattered clouds.9 mph53%29.95 "HgN/A
3:50 PM75 °FScattered clouds.9 mph57%29.95 "HgN/A
3:20 PM73 °FScattered clouds.12 mph57%29.95 "HgN/A
2:50 PM73 °FScattered clouds.9 mph61%29.95 "HgN/A
2:20 PM73 °FScattered clouds.8 mph61%29.98 "HgN/A
1:50 PM73 °FScattered clouds.9 mph61%29.98 "HgN/A
1:20 PM72 °FScattered clouds.7 mph65%29.98 "HgN/A
Weather by CustomWeather, © 2014

See weather overviewHow to use our weather pages